{"data":{"norad_id":66005,"epoch":"2026-05-25T03:31:43.901760Z","epoch_age_seconds":72501,"freshness":"FRESH","line1":"1 66005U 25232A   26145.14703590  .00021621  00000+0  64903-3 0  9994","line2":"2 66005  53.1607 108.6243 0001284 115.6497 244.4638 15.34407488 35130","mean_motion":15.34407488,"eccentricity":0.0001284,"inclination_deg":53.1607,"raan_deg":108.6243,"arg_perigee_deg":115.6497,"mean_anomaly_deg":244.4638,"bstar":0.00064903,"rev_number":3513,"period_min":93.847300098681,"perigee_km":461.80262335439,"apogee_km":463.55934541278,"semimajor_km":6840.8179843836,"source":"CELESTRAK","updated_at":"2026-05-25T13:38:21.012017Z"}}